Regional Weather Roundup
Issued by NWS

Home | Current Version | Previous Version | Graphics & Text | Print | Product List | Glossary On
Versions: 1 2 3 4 5 6 7 8 9 10 11 12 13 14 15 16 17 18 19 20 21 22 23 24 25 26 27
000
ASUS45 KSLC 291810
RWRUT

UTAH REGIONAL WEATHER ROUNDUP
NATIONAL WEATHER SERVICE SALT LAKE CITY UT
1200 PM MDT SUN MAY 29 2016

UTZ001>011-023>025-291900-

NORTHERN UTAH

CITY           SKY/WX    TMP DP  RH WIND       PRES   REMARKS
BRIGHAM CITY     N/A     69  38  31 CALM      30.10F
HILL AFB       SUNNY     69  39  33 VRB2      30.11F
LOGAN          PTSUNNY   61  44  53 N5        30.12F
OGDEN          SUNNY     71  41  33 CALM      30.09F
PROVO AIRPORT  MOSUNNY   70  45  40 E7        30.12S
SALT LAKE CITY MOSUNNY   77  40  26 VRB3      30.07F
VERNAL         SUNNY     68  41  37 SW5       30.16F
WENDOVER       SUNNY     72  39  30 SE6       30.09F
HEBER CITY     SUNNY     70  43  37 NW3       30.12F
WEST JORDAN    MOSUNNY   73  39  29 SE8       30.09F

$$

UTZ012>022-026-027-291900-

SOUTHERN/CENTRAL UTAH

CITY           SKY/WX    TMP DP  RH WIND       PRES   REMARKS
BLANDING       SUNNY     73  29  19 SE5       30.23F
BRYCE CANYON   MOSUNNY   67  29  24 SE9G22    30.24F
CEDAR CITY     SUNNY     72  34  24 NW8       30.11F
DELTA          SUNNY     73  36  25 W3        30.09F
HANKSVILLE     SUNNY     77  34  20 N7        30.11F
MILFORD        SUNNY     76  34  21 VRB5      30.08F
MOAB/CYNLANDS  SUNNY     77  34  21 E5        30.09F
PRICE          MOSUNNY   71  33  24 SE8       30.17F
ST GEORGE      CLEAR     84  36  17 CALM      30.00F

$$

REGIONAL REPORTS     COLORADO/ARIZONA

CITY           SKY/WX    TMP DP  RH WIND       PRES   REMARKS
CRAIG, CO      SUNNY     69  37  30 NW6       30.20F
GRAND JUNCTION CLOUDY    70  35  27 S8        30.13F
RIFLE          CLOUDY    71  35  26 CALM      30.16F
MONTROSE       SUNNY     73  34  23 VRB3      30.17F
CORTEZ         MOSUNNY   76  28  17 SW15      30.15F
PAGE, AZ       SUNNY     80  32  17 N6        30.06
GRAND CANYON   SUNNY     72  20  14 VRB6      30.20S
KINGMAN        SUNNY     80  30  16 SW15G22   30.03S
FLAGSTAFF      SUNNY     66  20  17 SW12G18   30.23S

$$

REGIONAL REPORTS    NEVADA/IDAHO/WYOMING

CITY           SKY/WX    TMP DP  RH WIND       PRES   REMARKS
LAS VEGAS, NV  MOSUNNY   85  28  12 VRB3      29.91F
ELY            MOSUNNY   68  32  26 S15       30.15F
ELKO           SUNNY     68  41  37 CALM      30.11F
POCATELLO, ID  MOSUNNY   69  39  33 CALM      30.11F
BURLEY         SUNNY     69  41  36 NE5       30.07F
EVANSTON, WY   SUNNY     65  35  33 SW15      30.22F
ROCK SPRINGS   SUNNY     62  28  27 NW9       30.23F
KEMMERER         N/A     61  28  29 CALM      30.25S

$$




USA.gov is the U.S. government's official web portal to all federal, state and local government web resources and services.